Year,Month,Day,Hour,Minute,Value (Times are PST for temperature in C)
2013,07,23,00,00,15.00
2013,07,23,00,01,15.00
2013,07,23,00,02,14.90
2013,07,23,00,03,14.90
2013,07,23,00,04,14.80
2013,07,23,00,05,14.80
2013,07,23,00,06,14.80
2013,07,23,00,07,14.80
2013,07,23,00,08,14.70
2013,07,23,00,09,14.70
2013,07,23,00,10,14.70
2013,07,23,00,11,14.70
2013,07,23,00,12,14.70
2013,07,23,00,13,14.70
2013,07,23,00,14,14.70
2013,07,23,00,15,14.70
2013,07,23,00,16,14.60
2013,07,23,00,17,14.60
2013,07,23,00,18,14.60
2013,07,23,00,19,14.60
2013,07,23,00,20,14.60
2013,07,23,00,21,14.60
2013,07,23,00,22,14.50
2013,07,23,00,23,14.50
2013,07,23,00,24,14.40
2013,07,23,00,25,14.40
2013,07,23,00,26,14.40
2013,07,23,00,27,14.40
2013,07,23,00,28,14.40
2013,07,23,00,29,14.40
2013,07,23,00,30,14.40
2013,07,23,00,31,14.30
2013,07,23,00,32,14.30
2013,07,23,00,33,14.30
2013,07,23,00,34,14.30
2013,07,23,00,35,14.30
2013,07,23,00,36,14.30
2013,07,23,00,37,14.30
2013,07,23,00,38,14.20
2013,07,23,00,39,14.20
2013,07,23,00,40,14.20
2013,07,23,00,41,14.20
2013,07,23,00,42,14.20
2013,07,23,00,43,14.10
2013,07,23,00,44,14.10
2013,07,23,00,45,14.10
2013,07,23,00,46,14.10
2013,07,23,00,47,14.10
2013,07,23,00,48,14.10
2013,07,23,00,49,14.10
2013,07,23,00,50,14.10
2013,07,23,00,51,14.00
2013,07,23,00,52,14.00
2013,07,23,00,53,14.00
2013,07,23,00,54,14.00
2013,07,23,00,55,13.90
2013,07,23,00,56,13.90
2013,07,23,00,57,13.90
2013,07,23,00,58,13.90
2013,07,23,00,59,13.90
2013,07,23,01,00,13.90
2013,07,23,01,01,13.80
2013,07,23,01,02,13.80
2013,07,23,01,03,13.80
2013,07,23,01,04,13.80
2013,07,23,01,05,13.80
2013,07,23,01,06,13.80
2013,07,23,01,07,13.80
2013,07,23,01,08,13.70
2013,07,23,01,09,13.70
2013,07,23,01,10,13.70
2013,07,23,01,11,13.70
2013,07,23,01,12,13.70
2013,07,23,01,13,13.60
2013,07,23,01,14,13.60
2013,07,23,01,15,13.60
2013,07,23,01,16,13.60
2013,07,23,01,17,13.60
2013,07,23,01,18,13.50
2013,07,23,01,19,13.50
2013,07,23,01,20,13.50
2013,07,23,01,21,13.40
2013,07,23,01,22,13.40
2013,07,23,01,23,13.40
2013,07,23,01,24,13.40
2013,07,23,01,25,13.30
2013,07,23,01,26,13.30
2013,07,23,01,27,13.30
2013,07,23,01,28,13.30
2013,07,23,01,29,13.30
2013,07,23,01,30,13.20
2013,07,23,01,31,13.20
2013,07,23,01,32,13.20
2013,07,23,01,33,13.20
2013,07,23,01,34,13.20
2013,07,23,01,35,13.10
2013,07,23,01,36,13.10
2013,07,23,01,37,13.10
2013,07,23,01,38,13.10
2013,07,23,01,39,13.10
2013,07,23,01,40,13.10
2013,07,23,01,41,13.10
2013,07,23,01,42,13.00
2013,07,23,01,43,13.00
2013,07,23,01,44,13.00
2013,07,23,01,45,13.00
2013,07,23,01,46,13.00
2013,07,23,01,47,13.00
2013,07,23,01,48,13.00
2013,07,23,01,49,13.00
2013,07,23,01,50,13.00
2013,07,23,01,51,13.00
2013,07,23,01,52,13.00
2013,07,23,01,53,12.90
2013,07,23,01,54,12.90
2013,07,23,01,55,12.90
2013,07,23,01,56,12.90
2013,07,23,01,57,12.90
2013,07,23,01,58,12.90
2013,07,23,01,59,12.90
2013,07,23,02,00,12.90
2013,07,23,02,01,12.90
2013,07,23,02,02,12.90
2013,07,23,02,03,12.90
2013,07,23,02,04,12.90
2013,07,23,02,05,12.80
2013,07,23,02,06,12.80
2013,07,23,02,07,12.80
2013,07,23,02,08,12.80
2013,07,23,02,09,12.80
2013,07,23,02,10,12.80
2013,07,23,02,11,12.80
2013,07,23,02,12,12.80
2013,07,23,02,13,12.80
2013,07,23,02,14,12.80
2013,07,23,02,15,12.80
2013,07,23,02,16,12.80
2013,07,23,02,17,12.70
2013,07,23,02,18,12.70
2013,07,23,02,19,12.70
2013,07,23,02,20,12.70
2013,07,23,02,21,12.70
2013,07,23,02,22,12.70
2013,07,23,02,23,12.70
2013,07,23,02,24,12.70
2013,07,23,02,25,12.70
2013,07,23,02,26,12.70
2013,07,23,02,27,12.80
2013,07,23,02,28,12.80
2013,07,23,02,29,12.80
2013,07,23,02,30,12.80
2013,07,23,02,31,12.80
2013,07,23,02,32,12.80
2013,07,23,02,33,12.80
2013,07,23,02,34,12.80
2013,07,23,02,35,12.80
2013,07,23,02,36,12.80
2013,07,23,02,37,12.80
2013,07,23,02,38,12.80
2013,07,23,02,39,12.80
2013,07,23,02,40,12.80
2013,07,23,02,41,12.70
2013,07,23,02,42,12.70
2013,07,23,02,43,12.70
2013,07,23,02,44,12.70
2013,07,23,02,45,12.70
2013,07,23,02,46,12.70
2013,07,23,02,47,12.70
2013,07,23,02,48,12.70
2013,07,23,02,49,12.70
2013,07,23,02,50,12.70
2013,07,23,02,51,12.60
2013,07,23,02,52,12.60
2013,07,23,02,53,12.60
2013,07,23,02,54,12.60
2013,07,23,02,55,12.60
2013,07,23,02,56,12.60
2013,07,23,02,57,12.60
2013,07,23,02,58,12.60
2013,07,23,02,59,12.60
2013,07,23,03,00,12.60
2013,07,23,03,01,12.60
2013,07,23,03,02,12.60
2013,07,23,03,03,12.60
2013,07,23,03,04,12.60
2013,07,23,03,05,12.60
2013,07,23,03,06,12.60
2013,07,23,03,07,12.60
2013,07,23,03,08,12.60
2013,07,23,03,09,12.60
2013,07,23,03,10,12.60
2013,07,23,03,11,12.50
2013,07,23,03,12,12.50
2013,07,23,03,13,12.50
2013,07,23,03,14,12.50
2013,07,23,03,15,12.50
2013,07,23,03,16,12.50
2013,07,23,03,17,12.40
2013,07,23,03,18,12.40
2013,07,23,03,19,12.40
2013,07,23,03,20,12.40
2013,07,23,03,21,12.40
2013,07,23,03,22,12.40
2013,07,23,03,23,12.40
2013,07,23,03,24,12.30
2013,07,23,03,25,12.30
2013,07,23,03,26,12.30
2013,07,23,03,27,12.30
2013,07,23,03,28,12.30
2013,07,23,03,29,12.30
2013,07,23,03,30,12.30
2013,07,23,03,31,12.30
2013,07,23,03,32,12.30
2013,07,23,03,33,12.30
2013,07,23,03,34,12.30
2013,07,23,03,35,12.30
2013,07,23,03,36,12.30
2013,07,23,03,37,12.30
2013,07,23,03,38,12.30
2013,07,23,03,39,12.30
2013,07,23,03,40,12.30
2013,07,23,03,41,12.30
2013,07,23,03,42,12.30
2013,07,23,03,43,12.20
2013,07,23,03,44,12.20
2013,07,23,03,45,12.20
2013,07,23,03,46,12.20
2013,07,23,03,47,12.20
2013,07,23,03,48,12.20
2013,07,23,03,49,12.20
2013,07,23,03,50,12.20
2013,07,23,03,51,12.20
2013,07,23,03,52,12.20
2013,07,23,03,53,12.20
2013,07,23,03,54,12.20
2013,07,23,03,55,12.20
2013,07,23,03,56,12.20
2013,07,23,03,57,12.20
2013,07,23,03,58,12.20
2013,07,23,03,59,12.20
2013,07,23,04,00,12.20
2013,07,23,04,01,12.20
2013,07,23,04,02,12.20
2013,07,23,04,03,12.20
2013,07,23,04,04,12.20
2013,07,23,04,05,12.20
2013,07,23,04,06,12.20
2013,07,23,04,07,12.20
2013,07,23,04,08,12.20
2013,07,23,04,09,12.20
2013,07,23,04,10,12.20
2013,07,23,04,11,12.20
2013,07,23,04,12,12.20
2013,07,23,04,13,12.20
2013,07,23,04,14,12.20
2013,07,23,04,15,12.20
2013,07,23,04,16,12.20
2013,07,23,04,17,12.20
2013,07,23,04,18,12.30
2013,07,23,04,19,12.30
2013,07,23,04,20,12.30
2013,07,23,04,21,12.30
2013,07,23,04,22,12.30
2013,07,23,04,23,12.40
2013,07,23,04,24,12.40
2013,07,23,04,25,12.40
2013,07,23,04,26,12.40
2013,07,23,04,27,12.40
2013,07,23,04,28,12.40
2013,07,23,04,29,12.40
2013,07,23,04,30,12.40
2013,07,23,04,31,12.40
2013,07,23,04,32,12.40
2013,07,23,04,33,12.40
2013,07,23,04,34,12.40
2013,07,23,04,35,12.40
2013,07,23,04,36,12.40
2013,07,23,04,37,12.40
2013,07,23,04,38,12.40
2013,07,23,04,39,12.40
2013,07,23,04,40,12.40
2013,07,23,04,41,12.40
2013,07,23,04,42,12.40
2013,07,23,04,43,12.40
2013,07,23,04,44,12.30
2013,07,23,04,45,12.30
2013,07,23,04,46,12.30
2013,07,23,04,47,12.30
2013,07,23,04,48,12.30
2013,07,23,04,49,12.30
2013,07,23,04,50,12.30
2013,07,23,04,51,12.30
2013,07,23,04,52,12.20
2013,07,23,04,53,12.20
2013,07,23,04,54,12.20
2013,07,23,04,55,12.20
2013,07,23,04,56,12.10
2013,07,23,04,57,12.10
2013,07,23,04,58,12.10
2013,07,23,04,59,12.10
2013,07,23,05,00,12.10
2013,07,23,05,01,12.10
2013,07,23,05,02,12.10
2013,07,23,05,03,12.10
2013,07,23,05,04,12.10
2013,07,23,05,05,12.20
2013,07,23,05,06,12.20
2013,07,23,05,07,12.20
2013,07,23,05,08,12.20
2013,07,23,05,09,12.20
2013,07,23,05,10,12.20
2013,07,23,05,11,12.20
2013,07,23,05,12,12.20
2013,07,23,05,13,12.20
2013,07,23,05,14,12.20
2013,07,23,05,15,12.20
2013,07,23,05,16,12.20
2013,07,23,05,17,12.20
2013,07,23,05,18,12.20
2013,07,23,05,19,12.20
2013,07,23,05,20,12.10
2013,07,23,05,21,12.10
2013,07,23,05,22,12.10
2013,07,23,05,23,12.10
2013,07,23,05,24,12.10
2013,07,23,05,25,12.10
2013,07,23,05,26,12.10
2013,07,23,05,27,12.10
2013,07,23,05,28,12.20
2013,07,23,05,29,12.20
2013,07,23,05,30,12.20
2013,07,23,05,31,12.30
2013,07,23,05,32,12.30
2013,07,23,05,33,12.30
2013,07,23,05,34,12.40
2013,07,23,05,35,12.40
2013,07,23,05,36,12.50
2013,07,23,05,37,12.60
2013,07,23,05,38,12.60
2013,07,23,05,39,12.70
2013,07,23,05,40,12.80
2013,07,23,05,41,12.80
2013,07,23,05,42,12.90
2013,07,23,05,43,12.90
2013,07,23,05,44,12.90
2013,07,23,05,45,12.90
2013,07,23,05,46,12.90
2013,07,23,05,47,13.00
2013,07,23,05,48,13.00
2013,07,23,05,49,13.00
2013,07,23,05,50,13.10
2013,07,23,05,51,13.10
2013,07,23,05,52,13.10
2013,07,23,05,53,13.10
2013,07,23,05,54,13.20
2013,07,23,05,55,13.20
2013,07,23,05,56,13.20
2013,07,23,05,57,13.20
2013,07,23,05,58,13.20
2013,07,23,05,59,13.20
2013,07,23,06,00,13.20
2013,07,23,06,01,13.20
2013,07,23,06,02,13.20
2013,07,23,06,03,13.20
2013,07,23,06,04,13.20
2013,07,23,06,05,13.20
2013,07,23,06,06,13.20
2013,07,23,06,07,13.20
2013,07,23,06,08,13.10
2013,07,23,06,09,13.10
2013,07,23,06,10,13.10
2013,07,23,06,11,13.10
2013,07,23,06,12,13.10
2013,07,23,06,13,13.10
2013,07,23,06,14,13.10
2013,07,23,06,15,13.10
2013,07,23,06,16,13.10
2013,07,23,06,17,13.10
2013,07,23,06,18,13.10
2013,07,23,06,19,13.10
2013,07,23,06,20,13.10
2013,07,23,06,21,13.10
2013,07,23,06,22,13.10
2013,07,23,06,23,13.10
2013,07,23,06,24,13.20
2013,07,23,06,25,13.20
2013,07,23,06,26,13.20
2013,07,23,06,27,13.20
2013,07,23,06,28,13.20
2013,07,23,06,29,13.20
2013,07,23,06,30,13.30
2013,07,23,06,31,13.30
2013,07,23,06,32,13.30
2013,07,23,06,33,13.40
2013,07,23,06,34,13.50
2013,07,23,06,35,13.50
2013,07,23,06,36,13.60
2013,07,23,06,37,13.60
2013,07,23,06,38,13.70
2013,07,23,06,39,13.80
2013,07,23,06,40,13.80
2013,07,23,06,41,13.80
2013,07,23,06,42,13.90
2013,07,23,06,43,13.90
2013,07,23,06,44,14.00
2013,07,23,06,45,14.00
2013,07,23,06,46,14.10
2013,07,23,06,47,14.10
2013,07,23,06,48,14.20
2013,07,23,06,49,14.20
2013,07,23,06,50,14.20
2013,07,23,06,51,14.30
2013,07,23,06,52,14.30
2013,07,23,06,53,14.30
2013,07,23,06,54,14.30
2013,07,23,06,55,14.40
2013,07,23,06,56,14.40
2013,07,23,06,57,14.50
2013,07,23,06,58,14.50
2013,07,23,06,59,14.60
2013,07,23,07,00,14.60
2013,07,23,07,01,14.70
2013,07,23,07,02,14.70
2013,07,23,07,03,14.80
2013,07,23,07,04,14.90
2013,07,23,07,05,15.00
2013,07,23,07,06,15.00
2013,07,23,07,07,15.00
2013,07,23,07,08,15.00
2013,07,23,07,09,15.10
2013,07,23,07,10,15.30
2013,07,23,07,11,15.30
2013,07,23,07,12,15.40
2013,07,23,07,13,15.50
2013,07,23,07,14,15.60
2013,07,23,07,15,15.70
2013,07,23,07,16,15.80
2013,07,23,07,17,15.90
2013,07,23,07,18,16.00
2013,07,23,07,19,16.10
2013,07,23,07,20,16.10
2013,07,23,07,21,16.20
2013,07,23,07,22,16.30
2013,07,23,07,23,16.30
2013,07,23,07,24,16.40
2013,07,23,07,25,16.40
2013,07,23,07,26,16.50
2013,07,23,07,27,16.60
2013,07,23,07,28,16.60
2013,07,23,07,29,16.60
2013,07,23,07,30,16.70
2013,07,23,07,31,16.80
2013,07,23,07,32,16.80
2013,07,23,07,33,16.80
2013,07,23,07,34,16.90
2013,07,23,07,35,17.00
2013,07,23,07,36,17.00
2013,07,23,07,37,17.10
2013,07,23,07,38,17.10
2013,07,23,07,39,17.10
2013,07,23,07,40,17.20
2013,07,23,07,41,17.20
2013,07,23,07,42,17.20
2013,07,23,07,43,17.30
2013,07,23,07,44,17.30
2013,07,23,07,45,17.30
2013,07,23,07,46,17.40
2013,07,23,07,47,17.40
2013,07,23,07,48,17.40
2013,07,23,07,49,17.50
2013,07,23,07,50,17.60
2013,07,23,07,51,17.60
2013,07,23,07,52,17.70
2013,07,23,07,53,17.70
2013,07,23,07,54,17.70
2013,07,23,07,55,17.70
2013,07,23,07,56,17.80
2013,07,23,07,57,17.80
2013,07,23,07,58,17.90
2013,07,23,07,59,17.90
2013,07,23,08,00,18.00
2013,07,23,08,01,18.00
2013,07,23,08,02,18.10
2013,07,23,08,03,18.10
2013,07,23,08,04,18.20
2013,07,23,08,05,18.20
2013,07,23,08,06,18.30
2013,07,23,08,07,18.30
2013,07,23,08,08,18.40
2013,07,23,08,09,18.40
2013,07,23,08,10,18.50
2013,07,23,08,11,18.50
2013,07,23,08,12,18.60
2013,07,23,08,13,18.60
2013,07,23,08,14,18.60
2013,07,23,08,15,18.60
2013,07,23,08,16,18.70
2013,07,23,08,17,18.70
2013,07,23,08,18,18.70
2013,07,23,08,19,18.80
2013,07,23,08,20,18.80
2013,07,23,08,21,18.80
2013,07,23,08,22,18.90
2013,07,23,08,23,18.90
2013,07,23,08,24,19.00
2013,07,23,08,25,19.00
2013,07,23,08,26,19.10
2013,07,23,08,27,19.10
2013,07,23,08,28,19.10
2013,07,23,08,29,19.20
2013,07,23,08,30,19.20
2013,07,23,08,31,19.30
2013,07,23,08,32,19.30
2013,07,23,08,33,19.30
2013,07,23,08,34,19.40
2013,07,23,08,35,19.40
2013,07,23,08,36,19.50
2013,07,23,08,37,19.50
2013,07,23,08,38,19.60
2013,07,23,08,39,19.70
2013,07,23,08,40,19.80
2013,07,23,08,41,19.90
2013,07,23,08,42,20.00
2013,07,23,08,43,20.00
2013,07,23,08,44,20.10
2013,07,23,08,45,20.20
2013,07,23,08,46,20.30
2013,07,23,08,47,20.40
2013,07,23,08,48,20.50
2013,07,23,08,49,20.60
2013,07,23,08,50,20.70
2013,07,23,08,51,20.70
2013,07,23,08,52,20.80
2013,07,23,08,53,20.90
2013,07,23,08,54,21.00
2013,07,23,08,55,21.00
2013,07,23,08,56,21.10
2013,07,23,08,57,21.10
2013,07,23,08,58,21.10
2013,07,23,08,59,21.20
2013,07,23,09,00,21.20
2013,07,23,09,01,21.20
2013,07,23,09,02,21.20
2013,07,23,09,03,21.30
2013,07,23,09,04,21.30
2013,07,23,09,05,21.30
2013,07,23,09,06,21.40
2013,07,23,09,07,21.40
2013,07,23,09,08,21.50
2013,07,23,09,09,21.60
2013,07,23,09,10,21.70
2013,07,23,09,11,21.70
2013,07,23,09,12,21.80
2013,07,23,09,13,21.80
2013,07,23,09,14,21.90
2013,07,23,09,15,22.00
2013,07,23,09,16,22.00
2013,07,23,09,17,22.10
2013,07,23,09,18,22.10
2013,07,23,09,19,22.10
2013,07,23,09,20,22.10
2013,07,23,09,21,22.10
2013,07,23,09,22,22.20
2013,07,23,09,23,22.20
2013,07,23,09,24,22.30
2013,07,23,09,25,22.30
2013,07,23,09,26,22.30
2013,07,23,09,27,22.30
2013,07,23,09,28,22.40
2013,07,23,09,29,22.40
2013,07,23,09,30,22.40
2013,07,23,09,31,22.40
2013,07,23,09,32,22.40
2013,07,23,09,33,22.40
2013,07,23,09,34,22.40
2013,07,23,09,35,22.40
2013,07,23,09,36,22.50
2013,07,23,09,37,22.60
2013,07,23,09,38,22.70
2013,07,23,09,39,22.70
2013,07,23,09,40,22.80
2013,07,23,09,41,22.80
2013,07,23,09,42,22.90
2013,07,23,09,43,23.00
2013,07,23,09,44,23.00
2013,07,23,09,45,23.10
2013,07,23,09,46,23.10
2013,07,23,09,47,23.20
2013,07,23,09,48,23.20
2013,07,23,09,49,23.20
2013,07,23,09,50,23.30
2013,07,23,09,51,23.30
2013,07,23,09,52,23.30
2013,07,23,09,53,23.40
2013,07,23,09,54,23.40
2013,07,23,09,55,23.40
2013,07,23,09,56,23.40
2013,07,23,09,57,23.40
2013,07,23,09,58,23.40
2013,07,23,09,59,23.40
2013,07,23,10,00,23.40
2013,07,23,10,01,23.40
2013,07,23,10,02,23.40
2013,07,23,10,03,23.40
2013,07,23,10,04,23.50
2013,07,23,10,05,23.60
2013,07,23,10,06,23.70
2013,07,23,10,07,23.80
2013,07,23,10,08,23.80
2013,07,23,10,09,23.80
2013,07,23,10,10,23.80
2013,07,23,10,11,23.80
2013,07,23,10,12,23.80
2013,07,23,10,13,23.80
2013,07,23,10,14,23.80
2013,07,23,10,15,23.80
2013,07,23,10,16,23.80
2013,07,23,10,17,23.80
2013,07,23,10,18,23.90
2013,07,23,10,19,23.90
2013,07,23,10,20,23.90
2013,07,23,10,21,23.80
2013,07,23,10,22,23.80
2013,07,23,10,23,23.80
2013,07,23,10,24,23.70
2013,07,23,10,25,23.60
2013,07,23,10,26,23.50
2013,07,23,10,27,23.50
2013,07,23,10,28,23.50
2013,07,23,10,29,23.40
2013,07,23,10,30,23.50
2013,07,23,10,31,23.50
2013,07,23,10,32,23.50
2013,07,23,10,33,23.50
2013,07,23,10,34,23.50
2013,07,23,10,35,23.50
2013,07,23,10,36,23.50
2013,07,23,10,37,23.60
2013,07,23,10,38,23.60
2013,07,23,10,39,23.60
2013,07,23,10,40,23.70
2013,07,23,10,41,23.80
2013,07,23,10,42,23.90
2013,07,23,10,43,23.90
2013,07,23,10,44,23.90
2013,07,23,10,45,24.00
2013,07,23,10,46,24.10
2013,07,23,10,47,24.10
2013,07,23,10,48,24.10
2013,07,23,10,49,24.20
2013,07,23,10,50,24.20
2013,07,23,10,51,24.20
2013,07,23,10,52,24.20
2013,07,23,10,53,24.20
2013,07,23,10,54,24.20
2013,07,23,10,55,24.20
2013,07,23,10,56,24.20
2013,07,23,10,57,24.30
2013,07,23,10,58,24.30
2013,07,23,10,59,24.30
2013,07,23,11,00,24.30
2013,07,23,11,01,24.30
2013,07,23,11,02,24.30
2013,07,23,11,03,24.30
2013,07,23,11,04,24.40
2013,07,23,11,05,24.50
2013,07,23,11,06,24.60
2013,07,23,11,07,24.70
2013,07,23,11,08,24.70
2013,07,23,11,09,24.80
2013,07,23,11,10,24.90
2013,07,23,11,11,25.00
2013,07,23,11,12,25.10
2013,07,23,11,13,25.20
2013,07,23,11,14,25.30
2013,07,23,11,15,25.40
2013,07,23,11,16,25.40
2013,07,23,11,17,25.50
2013,07,23,11,18,25.50
2013,07,23,11,19,25.60
2013,07,23,11,20,25.60
2013,07,23,11,21,25.70
2013,07,23,11,22,25.80
2013,07,23,11,23,25.80
2013,07,23,11,24,25.90
2013,07,23,11,25,25.90
2013,07,23,11,26,25.90
2013,07,23,11,27,25.90
2013,07,23,11,28,25.90
2013,07,23,11,29,25.80
2013,07,23,11,30,25.70
2013,07,23,11,31,25.60
2013,07,23,11,32,25.60
2013,07,23,11,33,25.60
2013,07,23,11,34,25.70
2013,07,23,11,35,25.80
2013,07,23,11,36,25.80
2013,07,23,11,37,25.80
2013,07,23,11,38,25.90
2013,07,23,11,39,26.00
2013,07,23,11,40,26.10
2013,07,23,11,41,26.10
2013,07,23,11,42,26.20
2013,07,23,11,43,26.20
2013,07,23,11,44,26.20
2013,07,23,11,45,26.30
2013,07,23,11,46,26.30
2013,07,23,11,47,26.30
2013,07,23,11,48,26.30
2013,07,23,11,49,26.30
2013,07,23,11,50,26.30
2013,07,23,11,51,26.30
2013,07,23,11,52,26.30
2013,07,23,11,53,26.30
2013,07,23,11,54,26.40
2013,07,23,11,55,26.40
2013,07,23,11,56,26.50
2013,07,23,11,57,26.50
2013,07,23,11,58,26.60
2013,07,23,11,59,26.60
2013,07,23,12,00,26.60
2013,07,23,12,01,26.60
2013,07,23,12,02,26.60
2013,07,23,12,03,26.60
2013,07,23,12,04,26.60
2013,07,23,12,05,26.60
2013,07,23,12,06,26.60
2013,07,23,12,07,26.60
2013,07,23,12,08,26.60
2013,07,23,12,09,26.60
2013,07,23,12,10,26.60
2013,07,23,12,11,26.60
2013,07,23,12,12,26.60
2013,07,23,12,13,26.60
2013,07,23,12,14,26.60
2013,07,23,12,15,26.60
2013,07,23,12,16,26.60
2013,07,23,12,17,26.50
2013,07,23,12,18,26.40
2013,07,23,12,19,26.40
2013,07,23,12,20,26.40
2013,07,23,12,21,26.50
2013,07,23,12,22,26.50
2013,07,23,12,23,26.40
2013,07,23,12,24,26.40
2013,07,23,12,25,26.30
2013,07,23,12,26,26.30
2013,07,23,12,27,26.30
2013,07,23,12,28,26.30
2013,07,23,12,29,26.40
2013,07,23,12,30,26.50
2013,07,23,12,31,26.50
2013,07,23,12,32,26.50
2013,07,23,12,33,26.50
2013,07,23,12,34,26.60
2013,07,23,12,35,26.60
2013,07,23,12,36,26.60
2013,07,23,12,37,26.60
2013,07,23,12,38,26.60
2013,07,23,12,39,26.60
2013,07,23,12,40,26.70
2013,07,23,12,41,26.70
2013,07,23,12,42,26.80
2013,07,23,12,43,26.90
2013,07,23,12,44,27.00
2013,07,23,12,45,27.00
2013,07,23,12,46,27.00
2013,07,23,12,47,26.90
2013,07,23,12,48,26.90
2013,07,23,12,49,26.90
2013,07,23,12,50,27.00
2013,07,23,12,51,27.10
2013,07,23,12,52,27.20
2013,07,23,12,53,27.20
2013,07,23,12,54,27.20
2013,07,23,12,55,27.20
2013,07,23,12,56,27.20
2013,07,23,12,57,27.20
2013,07,23,12,58,27.20
2013,07,23,12,59,27.20
2013,07,23,13,00,27.20
2013,07,23,13,01,27.10
2013,07,23,13,02,27.10
2013,07,23,13,03,27.10
2013,07,23,13,04,27.10
2013,07,23,13,05,27.10
2013,07,23,13,06,27.00
2013,07,23,13,07,26.90
2013,07,23,13,08,27.00
2013,07,23,13,09,27.00
2013,07,23,13,10,27.00
2013,07,23,13,11,27.00
2013,07,23,13,12,27.00
2013,07,23,13,13,27.00
2013,07,23,13,14,27.00
2013,07,23,13,15,26.90
2013,07,23,13,16,26.90
2013,07,23,13,17,27.00
2013,07,23,13,18,27.10
2013,07,23,13,19,27.20
2013,07,23,13,20,27.20
2013,07,23,13,21,27.30
2013,07,23,13,22,27.30
2013,07,23,13,23,27.30
2013,07,23,13,24,27.30
2013,07,23,13,25,27.30
2013,07,23,13,26,27.30
2013,07,23,13,27,27.30
2013,07,23,13,28,27.30
2013,07,23,13,29,27.30
2013,07,23,13,30,27.30
2013,07,23,13,31,27.20
2013,07,23,13,32,27.10
2013,07,23,13,33,27.10
2013,07,23,13,34,27.10
2013,07,23,13,35,27.10
2013,07,23,13,36,27.10
2013,07,23,13,37,27.20
2013,07,23,13,38,27.20
2013,07,23,13,39,27.10
2013,07,23,13,40,27.20
2013,07,23,13,41,27.20
2013,07,23,13,42,27.20
2013,07,23,13,43,27.20
2013,07,23,13,44,27.30
2013,07,23,13,45,27.30
2013,07,23,13,46,27.30
2013,07,23,13,47,27.30
2013,07,23,13,48,27.20
2013,07,23,13,49,27.20
2013,07,23,13,50,27.20
2013,07,23,13,51,27.20
2013,07,23,13,52,27.20
2013,07,23,13,53,27.20
2013,07,23,13,54,27.20
2013,07,23,13,55,27.30
2013,07,23,13,56,27.30
2013,07,23,13,57,27.40
2013,07,23,13,58,27.50
2013,07,23,13,59,27.60
2013,07,23,14,00,27.60
2013,07,23,14,01,27.60
2013,07,23,14,02,27.60
2013,07,23,14,03,27.60
2013,07,23,14,04,27.60
2013,07,23,14,05,27.70
2013,07,23,14,06,27.80
2013,07,23,14,07,27.80
2013,07,23,14,08,27.90
2013,07,23,14,09,27.90
2013,07,23,14,10,27.90
2013,07,23,14,11,27.80
2013,07,23,14,12,27.80
2013,07,23,14,13,27.70
2013,07,23,14,14,27.60
2013,07,23,14,15,27.60
2013,07,23,14,16,27.50
2013,07,23,14,17,27.50
2013,07,23,14,18,27.50
2013,07,23,14,19,27.60
2013,07,23,14,20,27.70
2013,07,23,14,21,27.80
2013,07,23,14,22,27.80
2013,07,23,14,23,27.80
2013,07,23,14,24,27.80
2013,07,23,14,25,27.90
2013,07,23,14,26,28.00
2013,07,23,14,27,28.20
2013,07,23,14,28,28.30
2013,07,23,14,29,28.30
2013,07,23,14,30,28.40
2013,07,23,14,31,28.40
2013,07,23,14,32,28.40
2013,07,23,14,33,28.50
2013,07,23,14,34,28.50
2013,07,23,14,35,28.50
2013,07,23,14,36,28.50
2013,07,23,14,37,28.50
2013,07,23,14,38,28.50
2013,07,23,14,39,28.60
2013,07,23,14,40,28.60
2013,07,23,14,41,28.70
2013,07,23,14,42,28.70
2013,07,23,14,43,28.80
2013,07,23,14,44,28.90
2013,07,23,14,45,29.00
2013,07,23,14,46,29.00
2013,07,23,14,47,29.00
2013,07,23,14,48,28.90
2013,07,23,14,49,28.90
2013,07,23,14,50,28.90
2013,07,23,14,51,28.80
2013,07,23,14,52,28.80
2013,07,23,14,53,28.80
2013,07,23,14,54,28.80
2013,07,23,14,55,28.70
2013,07,23,14,56,28.70
2013,07,23,14,57,28.80
2013,07,23,14,58,28.80
2013,07,23,14,59,28.90
2013,07,23,15,00,29.00
2013,07,23,15,01,29.00
2013,07,23,15,02,28.90
2013,07,23,15,03,28.90
2013,07,23,15,04,28.90
2013,07,23,15,05,28.90
2013,07,23,15,06,28.80
2013,07,23,15,07,28.70
2013,07,23,15,08,28.70
2013,07,23,15,09,28.60
2013,07,23,15,10,28.60
2013,07,23,15,11,28.60
2013,07,23,15,12,28.60
2013,07,23,15,13,28.60
2013,07,23,15,14,28.70
2013,07,23,15,15,28.70
2013,07,23,15,16,28.70
2013,07,23,15,17,28.70
2013,07,23,15,18,28.80
2013,07,23,15,19,28.90
2013,07,23,15,20,28.90
2013,07,23,15,21,29.00
2013,07,23,15,22,29.10
2013,07,23,15,23,29.20
2013,07,23,15,24,29.20
2013,07,23,15,25,29.40
2013,07,23,15,26,29.50
2013,07,23,15,27,29.70
2013,07,23,15,28,29.80
2013,07,23,15,29,29.90
2013,07,23,15,30,30.00
2013,07,23,15,31,30.10
2013,07,23,15,32,30.10
2013,07,23,15,33,30.20
2013,07,23,15,34,30.20
2013,07,23,15,35,30.30
2013,07,23,15,36,30.30
2013,07,23,15,37,30.30
2013,07,23,15,38,30.30
2013,07,23,15,39,30.20
2013,07,23,15,40,30.10
2013,07,23,15,41,30.00
2013,07,23,15,42,29.90
2013,07,23,15,43,29.80
2013,07,23,15,44,29.90
2013,07,23,15,45,29.90
2013,07,23,15,46,29.90
2013,07,23,15,47,29.90
2013,07,23,15,48,29.80
2013,07,23,15,49,29.80
2013,07,23,15,50,29.80
2013,07,23,15,51,29.70
2013,07,23,15,52,29.60
2013,07,23,15,53,29.50
2013,07,23,15,54,29.50
2013,07,23,15,55,29.50
2013,07,23,15,56,29.60
2013,07,23,15,57,29.70
2013,07,23,15,58,29.70
2013,07,23,15,59,29.70
2013,07,23,16,00,29.70
2013,07,23,16,01,29.60
2013,07,23,16,02,29.60
2013,07,23,16,03,29.60
2013,07,23,16,04,29.70
2013,07,23,16,05,29.70
2013,07,23,16,06,29.60
2013,07,23,16,07,29.60
2013,07,23,16,08,29.70
2013,07,23,16,09,29.70
2013,07,23,16,10,29.80
2013,07,23,16,11,29.80
2013,07,23,16,12,29.80
2013,07,23,16,13,29.80
2013,07,23,16,14,29.80
2013,07,23,16,15,29.80
2013,07,23,16,16,29.70
2013,07,23,16,17,29.60
2013,07,23,16,18,29.50
2013,07,23,16,19,29.50
2013,07,23,16,20,29.60
2013,07,23,16,21,29.60
2013,07,23,16,22,29.60
2013,07,23,16,23,29.50
2013,07,23,16,24,29.50
2013,07,23,16,25,29.50
2013,07,23,16,26,29.50
2013,07,23,16,27,29.40
2013,07,23,16,28,29.40
2013,07,23,16,29,29.50
2013,07,23,16,30,29.60
2013,07,23,16,31,29.60
2013,07,23,16,32,29.60
2013,07,23,16,33,29.70
2013,07,23,16,34,29.90
2013,07,23,16,35,30.00
2013,07,23,16,36,30.10
2013,07,23,16,37,30.10
2013,07,23,16,38,30.10
2013,07,23,16,39,30.10
2013,07,23,16,40,30.00
2013,07,23,16,41,30.00
2013,07,23,16,42,30.00
2013,07,23,16,43,30.10
2013,07,23,16,44,30.10
2013,07,23,16,45,30.10
2013,07,23,16,46,30.00
2013,07,23,16,47,30.00
2013,07,23,16,48,30.00
2013,07,23,16,49,30.10
2013,07,23,16,50,30.20
2013,07,23,16,51,30.20
2013,07,23,16,52,30.30
2013,07,23,16,53,30.30
2013,07,23,16,54,30.40
2013,07,23,16,55,30.40
2013,07,23,16,56,30.50
2013,07,23,16,57,30.50
2013,07,23,16,58,30.30
2013,07,23,16,59,30.10
2013,07,23,17,00,29.90
2013,07,23,17,01,29.80
2013,07,23,17,02,29.90
2013,07,23,17,03,30.00
2013,07,23,17,04,30.00
2013,07,23,17,05,30.10
2013,07,23,17,06,30.20
2013,07,23,17,07,30.20
2013,07,23,17,08,30.20
2013,07,23,17,09,30.20
2013,07,23,17,10,30.10
2013,07,23,17,11,30.00
2013,07,23,17,12,29.80
2013,07,23,17,13,29.60
2013,07,23,17,14,29.50
2013,07,23,17,15,29.40
2013,07,23,17,16,29.30
2013,07,23,17,17,29.20
2013,07,23,17,18,29.10
2013,07,23,17,19,29.10